GFSSGP_sfc_rhum_000.txt.gz
RH
60 40 35 36 18 14 23 26 22 29 31 27 29 28 41 42 43 58 37 43 48 48 46 55 83 82 83 83 83 84 83 83 85 84 83 82 80 79 79 80 78 77 74 73 73 73 73 73 74
36 40 37 20 13 19 26 19 22 24 30 31 32 33 35 52 42 44 45 45 49 48 43 48 86 84 83 85 85 84 80 81 84 84 82 81 80 79 77 75 75 75 75 73 72 73 73 72 71
40 39 27 11 14 16 25 24 27 28 26 23 36 32 34 55 43 41 41 44 47 54 54 60 84 85 83 83 84 82 81 81 82 81 81 79 78 77 74 74 74 74 73 73 72 72 72 70 70
33 31 23 14 20 20 23 25 26 25 23 23 27 43 43 37 43 38 41 44 49 48 50 70 82 82 82 84 81 80 80 81 83 82 79 77 74 73 73 73 73 73 72 72 71 72 70 69 70
30 23 12 16 22 21 20 20 18 20 22 24 25 39 50 47 39 39 41 39 42 46 51 56 84 83 83 82 80 81 80 78 81 79 75 73 72 72 72 71 70 71 71 70 71 71 71 71 71
20 16 13 16 22 22 22 21 17 22 27 29 33 42 63 45 42 40 37 35 34 40 46 54 78 84 83 80 80 82 80 78 80 78 74 73 72 72 71 70 70 69 68 68 67 69 70 72 74
19 11 13 14 23 24 24 20 18 20 24 28 29 44 70 46 39 38 36 36 38 38 46 51 53 67 79 80 79 80 80 78 78 76 74 74 74 73 71 70 69 67 66 66 67 69 69 71 74
16 11 12 12 14 24 23 20 18 20 29 28 26 40 68 50 40 37 37 36 46 45 54 58 59 52 56 57 78 78 78 76 74 74 74 75 74 72 72 72 71 68 67 67 69 72 70 70 69
15 9 11 12 13 22 21 22 25 22 32 40 36 29 40 42 39 40 42 41 45 43 44 44 50 54 55 53 59 73 75 74 72 69 71 68 42 47 49 57 69 69 69 69 69 71 72 73 72
11 8 11 12 12 17 20 21 25 28 36 47 43 42 45 41 43 44 44 45 46 48 45 41 42 48 53 43 58 56 50 46 48 50 54 49 46 49 51 61 70 71 71 71 72 71 72 66 47
8 10 15 18 17 17 20 23 22 24 28 37 49 50 45 42 43 43 42 43 46 48 43 42 49 52 50 49 48 46 45 44 47 58 57 52 48 48 44 42 42 44 59 42 46 45 41 44 45
10 18 17 22 19 17 18 19 31 31 35 38 41 43 44 42 39 38 40 42 46 49 47 47 53 59 57 49 46 44 42 44 43 45 62 66 50 50 51 44 44 52 45 49 48 42 50 50 47
14 21 21 20 18 17 16 23 36 41 39 40 42 44 44 40 39 38 38 39 44 49 48 50 55 64 63 64 49 46 45 42 41 44 49 50 47 50 48 59 48 47 44 46 54 48 48 49 46
16 19 20 17 15 15 18 23 24 44 40 43 44 43 41 40 41 42 40 42 44 46 46 48 54 59 67 76 71 70 51 51 46 43 45 57 53 50 46 56 47 46 44 62 54 60 53 51 48
19 23 24 18 20 17 15 23 34 41 39 41 40 42 41 43 44 46 44 46 46 45 46 50 54 54 67 70 70 62 51 45 44 43 53 56 62 58 68 61 51 60 60 62 57 59 55 52 47
15 15 20 20 20 20 24 30 35 33 34 39 40 42 44 45 42 44 45 46 48 50 56 57 48 50 67 74 79 73 50 47 44 42 43 52 59 70 85 62 58 55 58 52 52 62 60 65 48
14 14 14 20 20 22 20 26 30 28 28 34 37 39 40 42 43 42 42 46 47 48 53 57 56 54 56 62 59 57 59 53 48 46 52 59 75 71 86 87 67 74 59 61 57 55 57 69 69
12 11 13 16 18 22 20 25 26 27 25 29 32 34 37 37 38 41 43 44 46 48 54 58 55 62 65 62 67 77 79 84 79 78 59 64 64 65 68 58 64 69 61 62 62 70 57 57 55
6 8 12 13 15 19 21 28 26 25 25 24 25 34 32 33 32 36 42 44 44 46 52 58 63 66 64 68 75 67 66 64 65 57 60 62 64 67 75 81 67 78 74 62 66 69 72 61 58
7 8 9 16 18 19 27 29 28 26 23 26 25 31 31 32 33 40 41 42 43 48 53 59 64 67 67 62 73 70 68 52 52 64 65 62 59 63 62 66 58 62 55 67 72 78 72 59 69
8 8 9 13 24 20 28 31 37 30 29 27 28 27 31 33 34 36 39 41 40 46 54 58 64 66 69 67 58 54 48 50 41 42 41 48 58 60 64 63 62 64 69 62 70 81 82 73 61
10 9 9 12 26 20 22 19 38 32 36 33 29 32 31 34 34 32 34 39 40 46 51 63 68 70 63 58 51 59 44 45 44 45 44 54 54 59 60 63 63 68 62 73 70 72 81 83 74
12 14 15 16 22 22 30 23 17 29 35 31 29 28 29 30 32 32 30 35 39 49 52 56 61 61 57 56 55 42 49 40 43 45 57 64 59 59 57 62 65 66 58 70 75 82 81 86 81
16 19 20 17 14 20 14 19 13 17 29 25 27 28 31 30 31 32 31 38 47 45 46 45 56 60 57 49 50 56 58 56 49 51 52 44 44 46 55 59 64 66 66 65 70 74 79 85 89
12 12 15 16 16 14 16 18 15 12 23 21 23 28 31 31 31 34 39 46 49 50 44 42 55 63 58 46 46 50 54 58 60 60 43 60 43 43 52 62 62 56 64 64 68 77 78 85 85
10 8 10 20 13 10 22 16 15 20 20 17 21 23 28 32 32 35 44 45 48 46 44 46 55 58 51 48 56 59 59 42 45 48 52 44 44 43 58 57 58 59 60 61 65 59 54 66 76
10 12 7 12 10 11 10 16 17 19 22 23 26 27 29 31 31 35 39 42 44 42 46 49 55 56 52 48 59 60 60 61 55 62 62 44 58 44 46 54 58 58 59 62 68 54 60 62 70
10 8 11 10 20 22 13 14 13 17 16 21 26 29 31 30 31 33 35 41 39 38 42 45 51 55 51 50 52 47 52 55 57 58 61 61 59 58 58 57 55 56 57 58 64 64 65 72 68
12 11 12 10 13 16 15 13 13 14 14 17 23 29 32 30 29 31 35 40 37 36 39 44 47 50 50 50 51 53 52 51 53 54 56 58 59 61 60 60 60 59 58 57 64 64 57 62 66
8 10 11 15 25 15 16 12 12 12 13 15 18 26 29 32 25 26 33 39 36 39 35 38 39 40 41 44 49 51 53 55 54 54 54 54 57 59 60 60 63 60 58 60 63 63 62 66 68

GFSSGP_sfc_rhum_003.txt.gz
RH
54 37 26 27 15 14 20 20 16 21 24 20 22 24 34 35 30 55 39 45 43 47 46 51 83 79 81 83 83 82 82 81 83 84 82 79 75 76 77 76 75 74 72 72 72 72 72 73 74
28 28 27 23 15 17 17 15 20 22 24 22 21 24 32 42 33 39 44 43 43 40 43 50 87 82 80 82 82 83 81 80 82 83 81 78 74 76 75 73 74 75 73 72 72 73 71 69 70
37 27 30 10 11 17 19 18 21 20 16 21 22 22 31 40 34 38 40 44 45 51 54 64 84 84 79 80 80 83 82 78 79 80 78 75 74 77 74 73 73 73 72 72 71 71 69 67 66
26 23 12 13 15 14 18 18 16 16 16 18 24 35 31 29 32 34 40 45 48 50 50 71 82 81 81 80 81 80 80 78 78 77 75 75 74 72 71 72 71 72 71 71 70 69 68 67 68
25 20 13 16 16 14 14 13 12 16 17 17 23 37 40 32 30 34 40 42 51 49 49 54 84 82 82 80 79 78 79 77 78 74 74 72 72 71 70 70 69 69 68 68 67 67 67 66 67
39 9 15 18 18 16 14 11 14 17 17 20 28 37 41 32 32 34 33 37 34 45 46 52 78 82 83 78 79 78 77 76 76 74 72 72 72 71 70 68 68 67 65 63 65 66 66 68 69
60 15 10 12 17 18 16 12 14 17 20 23 24 43 39 33 30 27 30 38 35 42 49 51 52 65 79 79 79 80 78 76 74 73 72 72 73 71 70 68 67 65 64 63 64 65 66 68 69
12 8 10 13 14 18 15 13 13 17 21 19 23 38 44 34 29 26 29 32 37 43 49 63 54 51 56 59 76 78 78 75 73 72 72 72 72 71 70 71 71 66 64 66 67 68 68 67 68
9 13 8 11 12 15 13 17 17 19 22 22 23 25 30 30 28 28 32 41 43 41 47 46 50 51 69 53 61 75 77 74 72 69 70 66 43 63 52 62 62 67 66 66 67 69 70 72 71
9 8 9 8 10 12 14 16 19 24 30 28 27 26 29 31 33 34 33 39 38 40 40 47 46 57 60 41 62 55 51 48 50 49 64 49 56 63 49 58 65 68 69 70 69 71 71 67 47
7 7 9 10 10 11 13 13 13 15 28 28 36 35 33 34 35 35 35 36 39 40 35 33 50 45 45 66 46 43 42 50 44 55 63 59 69 67 68 68 55 66 70 41 58 68 49 50 40
10 9 10 10 10 11 12 14 20 26 27 27 29 31 32 35 34 33 34 37 40 42 38 38 44 52 49 55 39 57 58 38 46 59 59 58 49 71 64 49 70 51 40 47 52 55 45 45 43
10 11 11 10 10 10 12 19 28 32 28 27 29 31 32 31 32 32 32 34 39 43 41 42 48 58 58 58 42 42 56 38 48 41 45 45 67 71 57 54 48 51 44 58 62 69 71 57 45
10 11 11 10 10 12 16 19 27 33 28 31 33 33 31 30 31 33 34 35 38 40 40 40 46 62 67 66 65 59 43 49 49 51 65 64 46 73 62 67 51 63 54 49 53 62 55 55 47
10 12 12 12 11 11 12 19 30 32 30 33 33 32 33 34 35 36 34 36 37 37 41 50 60 63 63 68 70 72 45 38 49 64 56 46 53 60 81 74 57 53 55 65 60 61 60 56 44
10 11 14 12 12 16 52 30 28 26 29 33 33 33 35 36 34 36 36 44 41 47 55 51 46 48 62 67 64 57 49 47 59 36 38 44 53 67 80 62 56 62 66 53 55 54 53 50 52
10 12 14 14 11 23 45 25 25 20 23 29 30 31 32 33 33 34 36 48 39 44 48 52 48 44 55 63 60 57 59 46 44 66 54 54 62 61 70 60 58 67 59 54 56 59 63 59 56
12 12 11 14 12 12 23 22 23 20 18 25 26 28 29 30 31 32 33 34 36 39 45 48 47 52 54 70 66 62 78 58 50 49 50 65 72 64 80 80 66 70 77 70 61 68 62 67 67
8 9 10 10 10 12 14 19 22 21 19 20 22 27 26 26 26 30 32 34 36 38 46 51 57 67 64 73 75 81 65 70 59 82 63 64 68 67 73 74 68 77 69 67 71 65 73 68 70
6 7 9 9 10 12 14 19 18 20 20 19 20 23 23 24 26 31 34 35 36 40 45 52 55 67 64 58 73 74 62 45 41 46 55 56 52 66 58 63 55 59 47 66 66 74 78 71 57
7 7 7 9 10 10 18 18 22 18 18 19 17 19 20 23 23 28 32 33 32 40 47 51 57 59 65 66 62 58 53 54 40 37 39 43 49 48 56 59 60 64 61 47 63 74 81 87 76
8 6 6 7 12 15 11 16 26 23 20 18 19 18 18 20 20 21 24 29 29 35 41 52 57 62 57 54 49 59 48 39 41 40 38 48 49 50 54 57 58 64 58 66 70 65 76 91 87
9 6 7 7 9 12 16 15 26 25 27 22 17 18 19 20 20 20 20 26 27 34 39 48 58 56 53 51 52 40 44 33 32 36 50 61 61 52 49 55 61 70 56 70 70 76 82 86 95
8 9 10 10 10 15 15 22 14 28 28 23 20 16 18 19 20 21 21 25 29 34 40 48 55 59 54 48 47 49 50 50 43 46 47 39 37 38 48 52 61 64 63 62 63 69 75 82 88
8 9 14 15 15 16 11 11 15 10 12 12 16 19 17 18 20 23 25 29 37 40 43 42 55 61 55 46 41 41 47 53 57 55 42 55 38 38 48 59 60 55 62 62 66 69 69 68 70
9 8 11 22 14 11 12 15 11 7 10 13 14 14 18 21 21 23 27 33 40 40 43 41 55 60 53 45 51 53 54 40 40 43 48 43 42 40 53 56 56 56 57 58 63 55 52 68 70
9 10 6 8 9 11 10 12 9 13 12 14 13 15 19 21 24 23 25 33 38 41 43 43 54 58 51 44 57 57 56 57 54 58 58 43 53 42 46 51 56 56 55 57 64 50 59 62 78
8 7 9 9 18 19 12 12 11 16 13 11 13 15 18 20 25 24 25 34 36 37 37 39 46 53 49 45 47 41 43 50 54 55 58 59 57 56 55 55 53 54 56 61 64 58 58 64 54
8 10 10 8 13 15 14 13 11 12 12 12 12 13 17 20 26 24 26 31 35 35 34 34 40 46 47 46 46 46 46 45 49 51 51 54 56 58 58 57 57 56 57 57 63 70 62 64 71
6 9 10 13 20 13 13 13 8 9 9 11 12 14 16 22 27 26 26 30 34 34 32 31 32 36 39 39 44 46 49 50 49 51 50 52 55 56 57 57 58 56 55 61 59 61 58 65 72

GFSSGP_sfc_rhum_006.txt.gz
RH
63 45 38 29 36 17 25 22 17 21 24 22 38 58 54 69 38 75 44 50 46 50 58 64 83 83 82 83 84 84 82 84 84 83 82 81 82 83 81 80 80 78 76 73 73 73 73 73 73
37 33 26 30 18 19 23 19 22 21 20 20 26 32 41 53 42 49 50 45 43 43 49 60 85 84 83 83 84 84 82 82 84 83 81 81 81 80 78 77 76 76 75 72 72 71 70 69 69
38 32 32 20 17 20 22 19 19 17 17 21 28 28 35 46 41 50 43 44 45 56 63 74 85 84 82 83 84 83 83 82 82 81 80 79 77 75 74 74 74 74 74 72 71 69 68 66 65
26 29 25 12 15 15 15 15 16 18 19 24 27 35 32 37 44 44 46 47 54 54 59 78 82 81 82 82 82 82 82 82 81 80 79 76 75 73 72 72 72 72 71 70 70 68 67 66 65
48 59 19 16 16 13 12 12 14 17 19 23 30 38 38 42 40 41 45 43 48 54 58 67 85 84 83 83 82 82 81 80 80 78 75 76 75 72 72 71 70 69 68 67 66 65 64 64 66
41 31 18 20 16 18 10 10 12 16 22 26 32 38 39 34 37 40 42 45 41 47 53 61 81 82 82 81 80 81 80 79 78 77 76 76 73 72 70 68 68 66 63 62 64 64 64 65 66
33 30 19 22 30 32 37 10 14 18 23 28 28 42 36 32 31 34 37 44 41 44 54 63 66 73 79 82 79 80 80 78 76 76 74 73 72 71 70 68 67 62 63 62 64 66 67 69 70
49 35 15 19 25 30 28 11 13 17 22 21 26 41 40 31 28 32 35 48 44 45 53 63 66 64 71 72 80 78 80 78 76 72 71 71 72 72 69 72 73 65 63 64 66 69 71 73 75
24 21 14 14 15 19 15 17 14 15 20 22 23 29 29 27 26 32 46 46 53 51 50 51 56 63 75 68 67 79 76 77 74 71 72 72 63 78 91 68 72 68 67 67 68 71 74 75 76
9 13 12 12 10 30 43 24 18 21 22 23 24 27 28 27 28 37 37 41 41 51 52 47 52 56 63 49 74 72 66 66 70 68 77 69 66 76 79 70 74 69 68 72 72 73 75 70 64
8 9 8 11 13 26 32 30 45 66 27 25 31 32 31 30 31 30 38 38 42 47 41 43 62 62 62 85 64 64 62 60 62 73 74 80 78 88 64 85 82 75 74 62 67 65 63 69 63
9 10 9 9 16 16 14 24 44 55 55 25 26 29 31 32 31 30 31 34 41 41 43 59 66 74 74 69 54 60 56 62 66 71 73 77 69 77 69 65 67 79 72 74 72 68 74 66 64
10 10 9 11 12 12 16 22 35 30 28 23 24 28 32 31 31 30 30 32 39 42 40 49 71 73 70 74 72 67 66 58 57 67 72 64 72 79 73 73 69 74 73 70 73 71 70 70 63
9 10 9 10 10 13 17 21 25 28 26 27 28 30 30 30 31 32 32 37 40 42 42 45 62 71 68 74 80 81 67 66 62 68 67 65 71 84 76 80 72 77 72 74 85 85 78 75 68
9 11 10 10 12 15 14 24 30 28 28 31 30 30 29 29 29 33 32 37 40 40 47 55 59 62 74 75 77 73 67 49 60 65 66 68 76 74 80 82 81 78 83 78 81 81 78 72 65
10 10 13 12 17 18 18 33 29 25 28 32 30 29 31 33 32 33 32 36 40 47 64 63 48 59 70 76 76 72 65 62 67 70 70 69 69 73 84 83 77 75 79 77 88 89 88 80 74
11 14 16 16 16 17 20 26 26 22 24 27 28 28 31 33 35 37 40 43 52 61 62 60 63 62 72 77 75 73 72 67 77 76 74 71 71 73 84 80 79 82 79 76 75 75 87 88 84
13 15 16 17 16 18 19 23 22 19 21 25 25 27 29 30 30 37 42 45 47 54 65 70 66 66 77 86 84 78 84 75 66 83 78 77 82 75 84 89 89 87 92 90 93 90 90 85 80
10 10 15 14 18 21 21 23 22 17 19 24 25 27 26 26 30 31 37 42 41 44 61 69 73 73 74 81 79 81 76 82 75 73 72 74 75 79 83 90 87 87 86 86 84 82 85 78 84
7 8 10 11 11 13 25 25 21 18 18 22 24 27 25 26 28 32 34 32 35 49 60 64 73 78 77 88 81 78 85 82 81 72 76 72 70 77 74 78 76 77 74 81 77 81 83 84 92
7 7 8 10 10 10 12 25 38 21 17 18 19 22 23 25 29 34 36 36 36 46 56 63 73 77 77 78 84 90 78 75 71 69 71 71 64 65 71 72 76 79 81 71 82 82 86 88 88
8 6 6 6 10 14 12 20 37 26 20 19 18 19 20 23 26 29 32 36 36 46 49 65 68 74 74 72 72 79 71 69 72 67 72 69 63 67 67 72 74 80 80 82 82 79 88 94 94
7 5 6 6 8 9 10 16 28 22 22 19 18 18 18 20 21 24 27 32 33 41 45 59 70 74 74 74 68 68 72 65 64 64 68 72 76 74 62 68 75 78 76 80 83 85 88 91 95
5 9 7 7 8 13 11 14 27 32 28 21 19 16 18 18 20 21 25 30 31 37 44 56 72 76 73 70 67 66 64 68 68 73 72 67 67 64 73 69 75 79 80 80 78 84 84 87 91
6 10 16 17 16 16 10 13 21 19 16 21 46 51 16 17 20 23 26 30 36 43 48 60 72 78 73 66 64 59 61 67 70 74 69 73 66 66 78 75 76 76 79 78 80 83 84 84 86
8 9 14 26 17 13 12 18 19 12 15 20 22 23 16 17 22 25 30 33 40 45 55 59 72 76 71 67 68 68 68 68 68 73 70 68 68 66 67 68 70 72 72 74 77 76 78 82 87
9 11 7 10 9 11 12 13 10 10 10 9 11 10 18 18 18 23 26 36 42 47 56 62 71 76 71 66 77 74 75 72 72 72 72 68 71 60 70 67 71 73 74 76 79 76 78 78 80
8 7 11 10 22 22 12 13 14 20 14 12 11 11 13 19 20 20 24 36 44 44 52 58 66 73 68 66 69 67 71 71 72 71 73 73 74 71 70 70 70 72 74 75 79 80 77 81 79
8 9 9 8 11 16 16 20 17 21 16 12 11 12 12 13 22 24 25 38 44 42 48 50 58 65 64 63 67 66 61 61 69 69 69 70 73 73 73 74 74 73 73 75 78 81 80 80 82
6 9 11 15 22 16 18 15 10 12 10 10 12 11 14 16 20 26 26 37 42 44 44 45 46 52 55 58 66 67 66 64 66 68 66 68 72 73 73 74 74 73 71 74 74 75 75 78 80

GFSSGP_sfc_rhum_009.txt.gz
RH
72 67 63 61 82 56 33 37 36 47 59 55 55 54 60 68 62 87 71 59 63 73 76 75 85 82 83 85 84 82 82 83 84 84 84 84 83 83 83 82 82 81 79 74 74 75 75 74 74
51 40 54 59 53 38 39 27 29 38 46 51 44 49 61 70 56 65 68 60 61 67 78 80 85 83 82 84 84 83 81 82 84 84 83 83 82 82 80 77 77 79 77 74 73 73 72 71 71
56 39 58 62 31 36 35 26 26 33 45 43 47 44 54 69 54 58 52 51 59 69 80 80 86 84 83 83 84 84 82 83 83 82 82 82 80 78 75 76 75 75 76 74 72 71 71 70 69
36 51 49 31 25 21 23 24 25 32 32 34 47 63 55 50 53 53 57 63 71 74 77 83 86 84 83 84 84 85 84 83 83 82 80 79 78 74 74 74 73 73 73 72 72 70 70 69 69
56 59 60 28 22 19 18 18 22 31 35 46 53 66 68 56 51 52 58 58 69 77 80 81 85 85 84 84 85 84 83 82 82 81 78 80 79 74 74 73 71 70 69 69 68 66 66 68 69
43 48 58 30 26 21 17 20 26 34 36 45 63 67 69 56 53 53 53 59 63 71 82 80 84 86 86 81 81 84 82 80 81 80 81 80 79 78 76 71 69 66 64 64 66 70 72 71 72
56 63 68 29 25 25 26 21 27 31 37 39 51 73 64 56 51 49 50 53 61 66 77 86 84 80 82 84 82 81 82 80 81 81 80 80 77 74 73 71 70 66 65 65 66 73 75 76 76
50 49 45 45 28 25 23 20 24 30 36 32 35 58 59 54 50 49 50 54 60 69 75 81 87 88 92 87 81 78 81 79 80 79 77 78 74 71 69 75 77 70 68 67 69 74 77 79 79
28 60 46 58 45 33 26 22 22 25 32 34 31 38 40 45 49 53 59 59 63 65 69 72 77 83 90 88 81 84 80 81 79 78 77 80 91 80 69 80 69 72 71 70 73 74 76 78 74
40 44 23 31 26 34 34 36 45 31 32 38 36 33 36 39 53 56 60 66 66 69 68 66 71 74 79 67 87 90 83 88 88 86 87 92 88 95 85 80 66 66 74 74 75 75 74 72 78
29 27 20 20 21 32 37 37 40 46 35 36 43 38 35 44 54 56 59 62 68 66 61 63 69 76 78 90 87 90 91 88 85 85 90 91 91 94 94 92 88 90 78 79 74 78 77 79 74
13 15 18 22 26 33 37 41 29 38 42 33 35 35 38 39 45 44 44 53 55 60 58 67 73 81 81 80 84 85 79 82 83 81 77 95 87 90 83 84 82 84 80 75 77 77 79 73 68
14 13 15 17 22 34 35 39 38 34 30 31 33 35 40 41 40 42 43 48 50 56 61 66 74 82 82 80 88 74 68 73 67 79 80 74 80 86 76 82 77 79 82 78 83 83 80 82 76
13 12 15 15 21 24 33 37 36 34 29 31 34 38 38 39 40 42 46 54 49 52 62 68 74 74 77 82 84 87 76 70 70 81 77 71 76 88 86 84 82 90 85 90 90 90 85 85 82
12 15 13 17 19 26 26 38 40 32 29 33 35 36 36 38 40 44 48 52 52 52 62 68 79 79 80 83 85 86 85 75 72 75 71 69 74 79 90 86 86 86 92 85 89 90 89 88 80
15 16 22 21 21 24 33 49 37 33 34 37 35 34 36 41 42 42 46 50 54 52 57 62 61 77 87 89 90 88 84 82 79 71 71 69 75 78 89 87 87 84 86 85 91 93 93 93 91
18 24 27 26 21 20 31 45 35 33 35 39 37 36 39 43 44 42 45 49 53 60 61 59 65 76 86 90 91 88 87 86 87 80 77 72 79 83 90 89 90 89 93 92 93 93 94 94 94
22 20 25 26 22 20 28 40 33 32 36 38 37 40 43 44 45 47 49 51 58 59 66 64 71 79 87 92 94 94 93 89 84 91 92 79 85 79 88 93 91 93 95 96 96 94 94 95 95
15 16 24 20 17 24 28 34 32 29 30 33 39 41 40 42 47 49 49 50 58 61 67 71 69 86 93 94 94 95 90 93 94 89 82 82 83 81 87 92 92 93 93 93 92 91 92 95 94
11 19 26 21 20 26 29 31 28 39 38 31 35 37 37 41 52 52 53 51 56 63 76 78 82 85 88 95 94 94 95 94 90 88 87 84 80 82 83 88 86 86 91 88 87 92 94 96 95
11 14 17 23 22 22 30 44 58 41 34 29 31 32 33 41 49 54 55 54 56 66 75 80 88 88 91 87 94 94 94 92 86 76 74 67 61 73 76 76 81 86 90 90 92 91 91 97 97
14 10 9 12 25 38 29 58 58 47 37 30 31 32 33 38 38 43 45 52 61 65 71 82 85 88 86 88 89 88 92 73 84 83 81 74 74 70 69 72 82 86 92 92 92 88 92 94 98
10 9 9 9 15 22 24 29 45 43 43 29 29 31 30 35 36 40 41 45 52 57 67 78 83 92 87 74 81 80 74 73 82 85 79 70 71 75 74 80 82 86 90 90 91 89 92 95 96
8 9 13 11 16 24 19 24 55 44 34 24 25 26 27 32 35 36 38 41 52 54 67 76 90 85 83 72 71 66 66 74 80 82 78 81 72 81 83 79 79 85 88 88 89 90 89 91 93
9 24 30 33 26 25 17 18 40 29 24 23 34 32 31 27 33 37 39 42 53 60 68 80 83 86 82 74 75 68 69 70 70 72 84 81 81 88 83 79 85 81 81 82 87 87 90 90 91
12 17 34 37 35 22 15 22 28 23 24 24 26 26 21 30 27 34 37 39 51 58 72 74 78 89 83 80 74 72 72 74 80 89 87 76 80 82 81 77 80 77 80 83 84 84 86 88 89
12 20 14 21 22 25 23 21 24 24 25 25 28 26 22 22 28 31 35 38 48 60 74 76 77 85 85 82 81 76 76 77 86 81 79 82 87 71 74 72 75 80 84 85 85 90 89 84 87
13 12 23 24 36 35 23 32 32 29 25 22 35 33 31 30 28 29 36 40 49 60 69 72 74 76 82 83 83 81 83 81 80 82 80 81 80 80 77 79 79 80 80 84 86 86 84 87 90
16 17 24 21 27 29 35 35 35 27 24 21 17 23 28 30 34 47 46 42 51 60 68 72 75 77 80 81 83 82 87 83 82 81 79 81 84 84 83 83 82 82 83 84 87 86 86 87 91
11 13 22 35 28 33 36 32 17 23 22 22 22 23 22 27 32 38 35 43 50 60 68 73 71 77 77 78 80 80 69 72 83 81 78 78 80 80 81 81 84 84 81 83 83 81 80 86 87

GFSSGP_sfc_rhum_015.txt.gz
RH
77 72 75 85 79 63 74 66 57 57 57 61 55 60 78 76 63 86 89 84 82 83 87 81 84 82 81 82 82 81 81 81 83 84 82 82 79 79 79 78 78 77 76 75 75 74 72 72 72
74 68 82 86 52 72 67 56 61 56 54 57 54 61 72 79 72 93 92 84 82 87 89 85 86 84 79 82 83 82 80 78 84 83 83 81 78 78 77 77 77 76 75 74 73 72 71 70 70
62 53 82 77 49 68 72 59 57 52 49 54 63 57 67 84 76 80 76 79 82 92 92 86 85 84 79 79 82 81 80 78 80 80 78 78 76 75 75 75 74 75 74 73 72 71 70 69 68
56 62 59 38 48 49 55 51 49 56 52 57 62 78 66 61 68 73 75 80 86 89 83 83 82 80 79 80 80 78 78 78 80 80 77 75 75 75 74 74 74 74 74 72 71 70 70 70 69
63 56 39 44 53 54 52 47 47 56 56 62 61 77 78 72 67 71 78 80 90 92 84 82 84 82 81 78 79 78 76 78 79 78 75 74 74 74 74 74 73 72 71 70 70 69 68 69 69
52 50 51 47 51 52 53 47 49 57 62 71 74 80 91 70 73 74 76 84 85 91 91 84 82 83 82 77 76 77 75 76 77 77 77 76 75 75 75 73 71 70 68 68 68 70 71 71 71
51 51 60 47 50 54 52 48 63 66 62 68 60 87 94 80 73 73 76 82 85 89 92 91 85 79 80 82 76 76 76 76 76 79 78 77 76 75 74 72 71 69 67 67 69 71 75 76 76
46 44 48 51 52 57 51 54 56 58 62 51 57 88 93 80 71 75 78 86 92 95 97 97 95 92 93 87 78 76 76 74 77 78 77 77 74 72 72 76 75 71 69 70 70 72 75 75 77
36 48 52 44 42 46 40 57 52 50 59 48 50 64 67 68 70 79 87 92 96 94 98 98 98 98 98 94 82 80 76 77 76 77 77 82 94 90 82 77 73 71 73 69 67 71 73 73 73
43 50 40 34 35 41 38 50 53 53 58 62 61 59 60 66 74 84 90 97 98 98 99 98 98 98 98 83 93 95 88 92 94 93 93 96 95 95 82 74 71 70 68 69 72 70 71 70 87
43 44 34 32 35 31 40 44 44 59 63 63 74 70 65 67 76 81 84 86 90 90 90 95 97 98 98 96 98 99 99 99 98 95 96 96 95 96 96 97 91 91 83 86 84 82 88 86 86
42 30 28 31 38 40 42 43 47 55 54 51 62 64 65 70 75 78 80 81 83 86 84 87 92 96 96 98 99 99 98 99 99 98 94 98 98 98 91 94 91 92 91 84 84 85 83 85 85
29 29 27 32 38 40 36 41 47 48 45 50 60 64 68 70 71 71 71 74 79 84 81 83 86 92 92 95 99 99 99 97 96 94 93 95 96 92 92 92 94 90 93 86 91 95 93 87 83
27 32 31 38 39 39 42 44 45 47 55 59 63 67 66 68 69 70 71 75 77 77 76 78 83 86 93 94 96 96 97 94 89 92 85 89 90 89 91 93 90 92 96 95 96 95 96 96 92
26 37 38 40 45 38 39 51 55 45 56 62 65 66 66 65 64 69 68 71 70 71 66 73 79 85 90 90 91 93 95 91 93 96 88 87 84 92 92 90 95 92 93 90 94 91 93 93 89
32 39 53 47 42 38 48 66 51 44 48 58 56 61 61 62 61 58 61 66 67 67 72 70 68 81 90 94 93 93 96 93 87 95 88 88 85 92 96 97 97 93 96 96 97 96 96 96 96
28 48 48 47 38 43 54 64 47 44 44 48 48 53 50 54 53 54 55 60 64 68 73 75 73 81 88 94 95 95 95 95 92 95 92 88 85 88 95 98 96 94 97 97 97 97 97 96 96
38 44 47 48 40 42 55 57 47 46 47 48 47 47 47 49 53 52 54 54 63 67 72 76 76 86 92 96 97 98 97 97 97 97 96 91 93 92 96 96 91 95 96 96 96 94 96 96 97
23 33 42 39 34 48 53 57 49 47 47 49 49 49 47 48 47 50 52 52 58 68 77 80 89 93 95 98 98 98 98 97 96 94 90 91 93 90 93 95 95 96 95 93 91 94 94 96 97
17 33 36 30 35 47 55 58 44 45 47 46 47 48 47 48 52 54 54 55 60 68 75 84 83 92 91 97 97 96 96 96 94 95 92 93 89 92 90 94 95 94 94 93 93 92 96 97 98
20 23 31 32 34 44 51 62 56 49 44 41 42 42 43 49 53 54 56 58 59 69 76 80 82 90 95 95 97 98 97 97 95 93 97 91 82 84 88 92 93 95 95 97 94 94 92 97 98
28 16 21 29 34 52 47 78 60 53 51 47 45 44 45 47 48 52 57 60 63 66 71 77 86 93 94 95 95 94 97 96 94 93 84 78 81 81 83 85 93 94 97 94 94 94 95 96 96
19 15 16 29 32 51 52 59 59 52 57 50 46 44 45 46 49 51 54 57 59 58 72 80 92 95 94 94 95 98 95 93 93 92 82 86 83 81 81 92 93 93 96 94 92 92 93 97 97
17 14 19 32 42 56 50 46 53 61 48 43 40 39 44 46 49 49 50 52 58 61 69 80 91 93 95 95 96 96 91 88 94 91 83 87 87 96 93 89 88 91 94 93 92 92 90 94 96
15 18 26 37 52 55 38 49 40 40 37 35 38 39 41 44 50 52 55 57 61 68 69 76 87 91 94 95 95 92 79 85 85 86 81 94 97 97 94 89 92 90 88 89 91 92 90 92 95
16 18 28 27 37 31 30 51 36 27 28 31 30 33 37 43 49 54 57 57 56 62 69 72 82 83 94 90 86 77 79 81 84 84 95 90 93 93 92 89 90 84 85 88 91 95 94 93 96
18 19 16 23 54 35 34 28 20 31 27 30 31 30 37 40 48 53 55 56 55 60 68 73 79 80 92 78 80 77 82 79 82 89 93 84 87 87 89 86 88 87 86 90 90 95 93 93 94
11 14 21 29 32 40 30 31 28 23 37 37 34 33 36 37 43 49 52 55 57 58 62 68 75 80 90 86 75 72 80 79 85 94 90 86 91 87 89 88 87 85 89 89 91 94 93 94 96
19 19 24 24 33 30 32 30 29 24 36 41 36 30 33 37 42 44 49 48 54 59 62 68 77 81 91 86 88 86 86 85 92 90 89 88 90 89 89 89 90 91 90 89 92 94 93 94 94
13 15 17 18 26 39 32 28 26 30 38 33 32 32 36 36 40 42 44 44 48 58 61 68 75 79 86 80 86 90 90 90 89 89 87 87 89 91 90 93 93 92 91 92 93 92 90 93 94

GFSSGP_sfc_rhum_021.txt.gz
RH
68 65 60 63 46 37 51 50 44 50 54 52 49 47 68 68 56 62 65 58 55 58 65 67 81 79 79 80 80 75 74 76 79 79 79 76 75 77 77 77 77 76 75 73 72 72 72 72 72
60 57 59 72 42 45 51 47 49 47 53 50 52 55 59 74 66 70 66 64 57 55 61 62 85 80 78 78 76 76 74 75 80 81 80 77 76 77 77 76 75 75 74 72 72 72 72 71 71
53 52 64 42 44 47 49 47 48 49 50 50 57 52 59 77 67 62 60 63 63 66 67 69 82 80 79 78 76 76 79 77 78 79 77 76 76 76 75 74 74 74 74 73 72 71 71 71 71
54 52 46 34 42 48 47 45 49 52 51 52 48 61 58 55 59 59 60 61 61 64 63 77 80 78 79 79 77 78 79 78 79 78 75 74 74 74 73 72 73 73 72 72 71 71 70 70 70
48 43 32 40 47 47 42 41 44 51 56 53 52 65 64 69 58 59 62 59 58 58 64 69 81 79 78 78 78 78 75 75 77 76 74 74 74 73 72 72 71 71 70 69 69 70 71 71 70
45 35 32 35 46 47 42 41 47 54 56 57 56 57 73 65 60 59 58 58 53 57 60 62 76 79 80 76 75 77 75 74 76 75 74 74 74 74 73 70 69 69 68 68 68 71 72 72 72
39 32 37 41 46 46 46 39 48 55 56 56 49 59 78 63 57 58 57 57 55 56 61 66 66 72 76 78 76 76 76 76 76 76 76 75 74 73 72 70 70 69 68 68 69 70 69 66 68
30 25 38 40 38 40 43 45 48 50 55 49 45 64 77 63 56 56 57 58 56 58 63 70 69 66 65 65 76 76 76 76 76 76 76 75 73 70 70 73 71 71 70 66 67 70 68 67 67
28 25 36 40 39 36 42 47 46 44 52 49 51 52 49 59 56 58 62 65 68 67 65 62 63 67 69 65 64 73 75 75 76 74 75 71 56 61 62 71 74 67 68 68 69 69 70 67 67
29 25 26 28 30 33 43 44 48 52 49 54 61 55 60 60 60 59 62 65 64 67 67 62 62 63 67 57 67 66 62 56 61 64 70 63 66 67 65 70 74 73 72 70 71 72 67 62 51
28 24 24 26 29 31 40 44 43 48 49 49 64 64 62 62 60 57 56 58 62 63 61 63 70 71 67 69 68 65 62 60 63 73 71 72 66 64 61 59 57 59 62 53 54 54 48 57 54
24 27 23 23 29 33 40 38 43 43 40 39 51 56 61 63 60 55 55 57 61 66 64 64 69 77 75 67 63 63 61 63 61 61 73 71 64 66 66 64 61 68 58 68 61 54 62 58 61
18 21 24 26 29 30 35 39 38 40 46 44 51 59 62 59 59 58 54 54 60 65 64 67 71 76 77 81 66 63 65 60 62 62 64 62 61 66 74 70 73 75 63 59 77 66 62 61 58
19 25 32 30 32 35 34 41 38 42 49 54 57 58 57 58 59 60 60 62 64 64 63 65 71 75 77 77 81 73 68 63 64 64 61 73 64 65 86 70 69 83 62 60 74 76 76 64 61
26 32 34 32 33 36 32 46 44 40 48 54 55 56 56 57 58 61 58 61 61 60 60 63 67 69 78 77 75 71 66 64 63 63 70 73 80 70 84 77 74 65 65 74 69 78 65 68 60
28 27 31 35 32 37 30 34 38 44 47 51 52 54 56 57 57 57 55 58 58 59 64 64 54 62 72 75 72 67 65 64 65 86 69 75 76 79 78 71 84 64 70 63 74 69 62 60 57
31 26 30 40 30 37 35 35 34 43 45 51 51 51 54 57 57 55 55 57 58 62 66 65 64 63 70 76 72 72 76 70 64 64 87 74 73 76 73 87 84 82 67 85 65 62 66 61 58
28 30 30 35 34 36 39 37 42 46 44 48 50 50 54 55 56 54 54 54 55 59 65 67 64 71 76 72 78 73 72 68 67 68 66 74 76 69 81 76 79 72 72 64 62 70 62 62 60
21 24 26 34 32 35 37 38 41 47 47 47 49 53 50 52 48 49 52 52 56 59 65 69 72 77 74 74 73 70 68 67 69 67 73 73 73 72 74 70 75 73 64 64 69 63 67 57 65
25 25 25 31 34 32 35 36 37 42 49 46 48 50 51 50 51 53 54 52 56 62 66 70 74 77 78 68 71 66 70 66 66 67 72 73 71 75 75 74 69 71 63 74 70 72 57 60 68
25 25 28 26 32 34 35 36 38 42 42 43 42 41 42 48 48 49 52 53 53 60 66 70 77 77 78 76 73 77 75 75 71 71 69 69 71 73 76 73 69 75 66 57 69 68 75 59 64
17 23 25 27 32 35 33 36 38 38 45 44 41 39 38 40 42 40 45 49 51 56 60 69 74 78 74 79 76 81 68 67 62 65 64 68 74 73 73 74 74 76 61 68 67 65 69 72 61
14 18 22 26 29 32 41 38 27 45 46 41 39 37 36 34 36 37 39 43 47 50 54 61 73 78 78 80 80 74 76 64 64 66 75 77 79 76 72 75 74 74 60 73 72 75 76 66 65
15 18 24 28 26 40 30 36 24 36 41 35 33 35 34 33 33 34 36 40 45 47 51 56 72 81 80 79 80 83 80 76 70 69 66 65 63 62 71 69 72 73 70 71 68 73 75 72 72
14 16 25 31 40 29 23 39 29 21 26 26 27 32 33 32 32 36 38 41 49 52 55 56 73 80 79 78 79 80 81 81 81 76 63 67 60 58 68 74 76 69 74 71 71 76 73 73 68
15 13 19 34 29 23 32 39 29 24 20 24 26 25 29 32 34 36 42 45 49 52 59 62 70 76 76 76 81 82 81 70 78 73 60 60 54 54 68 72 72 73 70 69 74 66 64 71 68
16 18 11 16 21 21 21 29 23 22 22 21 22 25 29 31 33 34 36 41 45 53 59 64 70 74 74 71 80 81 82 80 75 78 78 60 68 56 68 70 74 72 68 71 74 61 70 72 73
12 11 15 17 29 27 20 24 16 22 22 21 21 23 26 28 32 33 34 42 45 47 54 58 65 73 71 70 72 72 77 82 78 76 83 73 68 68 70 72 70 70 70 71 76 67 68 75 66
13 14 16 13 17 22 22 17 18 20 19 17 16 19 21 26 31 34 38 41 45 46 48 54 59 65 68 71 73 77 75 79 81 71 82 83 78 77 74 77 71 70 70 71 76 75 71 75 74
7 11 13 17 29 19 17 15 13 17 14 16 18 17 22 27 30 34 36 40 43 48 46 49 52 55 61 65 74 79 81 83 75 67 71 85 85 82 79 81 76 73 68 70 75 71 67 74 73

GFSSGP_sfc_rhum_027.txt.gz
RH
67 52 51 70 82 44 37 37 32 45 43 36 32 38 44 47 51 79 74 61 53 53 53 59 77 78 77 77 77 75 73 72 73 74 74 75 75 76 75 74 74 73 72 71 71 70 70 70 69
39 40 39 50 62 60 39 32 41 41 32 35 32 38 39 45 44 55 57 49 45 45 44 48 81 78 77 76 76 76 73 72 72 73 73 75 76 75 72 73 73 72 72 70 69 70 70 70 70
37 35 44 48 49 31 33 34 31 28 26 30 31 29 37 43 39 48 42 42 47 47 46 60 78 79 77 76 76 74 73 72 73 72 73 74 74 73 70 71 72 71 70 69 68 68 68 67 67
34 37 34 26 19 20 26 27 25 26 26 25 30 38 31 30 39 37 42 47 49 48 50 67 76 77 76 76 76 75 75 75 72 72 74 73 72 69 70 70 70 69 68 67 67 67 68 67 66
27 29 22 16 20 21 22 22 23 31 26 27 30 42 40 36 30 33 43 42 47 47 46 56 78 79 77 77 77 76 75 74 72 72 72 71 70 69 69 67 66 66 66 67 67 67 65 66 66
28 18 13 14 17 19 21 21 22 23 25 27 32 40 45 32 33 33 34 36 39 35 40 53 76 78 76 76 74 74 73 72 73 72 71 71 70 69 67 64 64 65 66 66 67 64 63 63 64
27 20 12 13 18 18 20 18 20 23 25 28 28 42 39 34 32 31 32 37 33 30 41 50 54 69 75 74 73 72 72 73 72 71 71 71 70 68 65 64 65 66 66 65 64 64 61 61 62
18 18 14 12 14 17 17 18 17 20 24 20 25 41 42 34 29 28 35 37 37 37 41 48 52 52 59 58 71 71 72 72 71 72 72 70 70 67 67 66 68 64 64 64 64 64 61 60 63
15 25 20 13 15 16 16 18 18 18 24 23 22 29 29 30 27 30 31 40 50 42 45 41 52 46 48 48 56 72 74 72 72 71 72 67 50 52 56 64 63 62 69 66 66 65 63 64 64
18 35 16 12 12 15 15 16 19 21 24 26 24 26 30 31 30 31 30 39 37 45 47 41 43 40 43 35 60 54 50 48 49 48 59 47 43 46 46 53 63 67 68 66 65 64 64 67 51
14 34 15 12 12 13 15 14 17 20 24 24 28 31 32 32 32 31 30 32 35 44 38 34 38 42 39 46 44 41 40 40 41 50 51 46 43 52 40 54 56 74 76 60 60 60 56 64 45
17 16 10 12 11 13 15 13 15 18 17 19 23 28 30 32 30 29 29 32 36 38 34 32 39 48 46 40 38 35 34 35 35 41 55 53 47 47 52 65 65 58 57 46 59 65 53 55 60
14 13 11 11 12 12 14 15 15 17 16 17 22 28 29 29 28 27 27 30 34 38 35 36 42 52 52 53 40 36 35 35 33 36 45 42 41 66 65 78 46 58 43 70 67 64 59 47 52
12 12 11 11 12 13 14 16 16 19 17 19 25 28 27 26 26 27 28 31 35 38 38 37 43 51 53 55 58 47 41 37 37 34 37 51 48 65 51 50 45 69 43 55 59 55 54 54 55
10 13 13 12 12 13 14 19 18 19 19 21 25 25 25 25 25 28 28 31 34 35 37 39 44 45 56 56 55 50 40 37 36 36 44 47 53 56 68 60 48 51 74 59 55 60 73 68 52
11 12 14 12 12 14 15 22 20 20 20 21 24 25 25 26 24 27 27 30 32 33 39 41 36 41 52 58 53 46 40 38 48 45 64 66 57 60 61 52 48 58 55 71 65 56 71 37 36
11 14 13 15 12 16 17 56 18 20 20 21 22 24 25 26 26 27 27 30 31 36 40 42 42 40 49 58 53 52 57 44 44 63 40 57 53 57 58 61 63 67 54 50 72 71 52 42 33
15 14 12 18 13 17 18 21 19 20 20 20 21 22 25 25 26 27 28 28 30 34 39 46 43 51 56 52 60 50 57 58 48 40 46 68 53 52 67 69 51 51 49 63 82 57 46 40 37
11 12 14 12 11 16 18 18 19 20 21 20 20 22 22 23 24 25 28 27 30 34 42 48 54 63 54 50 50 49 49 58 51 51 69 57 58 59 66 68 74 52 53 79 53 48 50 36 41
10 12 12 10 13 14 17 18 16 19 22 20 20 21 21 20 22 27 30 29 32 38 44 54 60 66 63 50 54 46 49 38 43 41 47 53 51 61 53 58 59 75 71 57 53 55 44 33 43
10 11 12 11 15 15 16 19 17 16 18 20 19 18 19 20 21 25 30 32 32 37 44 55 65 68 67 64 54 54 52 48 42 37 38 41 49 47 60 58 58 61 50 43 54 49 52 39 38
11 9 9 10 22 20 15 21 19 16 17 19 20 19 17 19 19 20 26 30 31 35 40 52 63 69 66 70 60 68 52 46 37 39 34 38 44 45 54 54 52 59 47 60 46 42 51 54 41
10 8 10 10 15 20 16 17 17 15 17 15 17 19 18 16 18 19 20 27 29 31 34 44 61 70 69 71 71 55 62 41 37 36 56 56 59 49 44 51 59 57 46 58 53 54 58 45 44
7 9 10 10 11 22 17 22 16 21 16 14 15 16 18 16 17 19 19 22 26 28 32 38 60 72 73 70 73 76 69 62 45 46 46 43 39 45 52 50 57 66 54 52 52 56 56 59 57
7 10 15 17 16 17 18 19 29 12 13 12 12 13 15 16 16 18 21 21 26 30 34 36 57 74 74 71 69 73 73 70 69 59 48 51 35 35 61 62 70 65 67 54 56 63 58 57 54
8 9 14 25 18 14 12 19 14 11 10 11 10 9 12 16 17 17 20 21 24 29 37 42 53 70 71 70 73 74 76 56 53 59 44 40 33 35 63 63 66 60 63 64 63 50 51 56 55
7 10 7 11 11 13 12 13 12 12 10 11 11 9 9 13 15 16 17 19 21 28 37 43 51 66 70 66 74 74 74 72 55 63 66 46 51 35 56 60 61 62 59 60 62 58 56 58 58
5 6 10 10 23 23 13 15 15 15 14 12 11 9 8 9 12 14 16 19 21 22 30 39 48 62 65 63 66 65 69 71 68 64 67 63 57 51 57 59 66 66 69 67 73 64 62 63 52
6 6 8 8 11 17 17 14 10 14 13 12 10 9 8 7 9 12 16 18 22 22 26 34 43 54 62 61 63 66 64 64 68 61 65 66 65 64 64 68 66 68 72 68 76 70 59 59 65
5 6 7 13 20 13 13 12 7 8 9 9 9 8 7 7 7 9 12 16 19 25 24 27 33 40 50 54 62 64 66 65 64 66 65 68 70 70 68 70 68 67 65 70 75 72 54 59 63

GFSSGP_sfc_rhum_030.txt.gz
RH
71 60 59 86 98 82 65 50 44 44 39 34 56 71 71 82 53 89 62 59 61 67 68 68 80 77 75 76 75 77 78 80 80 80 80 80 79 79 78 76 75 74 73 71 71 70 71 70 70
49 50 76 91 92 86 46 41 58 39 31 34 36 42 45 57 51 59 62 55 53 51 55 59 83 79 76 77 78 77 74 75 78 79 80 78 76 76 73 73 73 72 70 70 70 70 70 70 70
41 42 93 97 50 73 45 37 42 31 29 38 46 36 41 55 46 49 49 46 44 49 53 72 79 79 79 78 79 78 76 76 78 78 75 74 74 72 72 72 71 70 69 68 68 68 68 67 67
49 67 65 70 35 34 38 40 28 29 28 27 32 49 40 36 43 48 47 47 49 47 54 74 78 79 77 79 78 77 77 76 76 75 74 73 71 70 71 69 68 67 68 67 68 68 67 66 65
46 50 48 23 29 27 23 29 27 28 36 33 34 55 51 38 40 42 44 42 48 46 54 64 79 79 78 80 78 78 76 73 75 73 72 71 70 69 69 66 65 66 67 67 68 66 64 64 64
49 42 46 16 18 22 22 22 24 26 29 32 38 50 54 42 41 44 42 45 45 49 50 61 77 80 79 78 78 77 75 73 73 72 71 70 69 69 66 64 63 64 65 66 66 64 62 61 62
39 33 32 13 16 18 18 19 25 22 27 32 34 51 42 48 38 39 42 43 37 42 53 65 66 73 77 78 76 74 73 73 73 71 71 71 69 68 65 62 64 63 64 64 64 63 61 62 63
27 38 28 16 15 17 15 19 20 19 28 24 27 44 50 36 37 37 39 34 35 42 52 64 69 68 71 69 73 73 73 72 70 70 70 72 70 68 66 70 68 63 62 63 65 66 66 67 70
23 47 24 19 15 16 15 16 18 19 20 33 26 29 34 27 34 32 35 37 42 40 45 47 57 65 66 62 64 72 72 71 70 71 73 74 69 64 63 68 67 63 68 67 68 70 73 73 73
78 76 35 24 14 14 14 16 17 20 21 25 29 26 26 27 31 37 48 47 43 46 43 43 44 50 57 44 73 70 62 62 69 68 73 68 74 73 58 65 70 67 66 71 70 73 70 73 86
55 58 30 28 13 12 13 16 15 20 24 22 31 30 28 27 31 39 39 49 46 50 49 45 52 55 51 66 65 60 59 59 62 77 76 68 68 64 62 71 72 74 85 90 64 87 76 58 68
54 63 37 14 12 12 13 13 17 18 19 19 25 29 30 28 26 26 34 36 49 47 45 45 55 63 65 62 54 52 51 56 52 58 68 74 69 70 70 72 70 77 73 83 90 78 77 62 64
36 38 25 11 10 11 12 13 14 16 16 18 25 30 31 30 27 25 26 29 44 45 43 48 55 66 67 66 58 59 58 47 47 63 66 62 70 71 68 78 68 73 69 72 88 86 72 67 65
8 15 13 10 10 12 14 13 12 15 15 20 26 29 29 28 27 28 29 33 38 40 38 45 51 64 65 69 72 73 63 59 54 57 64 68 68 85 78 70 72 83 74 76 76 76 75 76 70
8 12 11 11 10 12 12 18 16 16 15 21 25 27 27 27 26 30 29 35 38 40 40 46 50 57 68 70 68 69 61 46 60 57 69 66 73 80 78 73 76 76 73 74 75 80 76 74 65
8 10 16 11 10 11 12 39 16 17 15 21 24 25 26 26 25 28 28 33 37 40 49 48 37 52 66 70 70 62 55 61 63 62 66 65 68 70 78 76 72 73 88 89 90 80 82 77 60
9 13 14 16 11 12 16 55 32 23 14 20 22 23 24 26 26 27 26 31 35 42 51 50 51 49 64 71 67 66 68 67 67 76 70 74 74 74 79 75 77 76 75 78 80 75 77 70 64
11 13 12 18 14 12 36 65 40 26 17 18 20 23 24 24 25 27 27 29 31 38 49 55 52 62 71 67 73 66 70 72 70 68 71 74 80 73 81 81 79 75 72 86 79 76 69 66 68
9 11 12 16 31 13 24 40 57 32 19 18 18 21 22 23 24 25 27 29 32 38 50 58 64 71 68 68 69 68 71 71 66 64 71 78 77 71 77 76 81 74 80 77 78 72 70 66 73
10 12 13 15 26 21 16 38 42 32 19 18 18 19 20 21 24 28 31 30 33 43 52 63 66 75 71 66 75 68 66 60 64 63 72 75 74 77 74 80 82 80 80 81 76 74 76 70 74
10 12 13 15 16 13 14 17 18 18 19 18 16 18 18 20 21 28 31 33 32 44 54 62 70 74 72 72 68 71 74 75 73 69 68 74 70 69 76 72 76 79 77 78 75 73 70 75 74
11 8 10 13 16 21 14 21 22 17 22 20 17 16 18 19 20 20 27 33 33 41 49 62 70 74 73 74 74 75 68 69 65 66 64 71 67 65 73 76 78 79 79 79 77 71 74 76 76
10 8 9 10 15 18 24 25 20 21 21 20 17 17 16 17 18 18 23 30 32 36 44 57 70 75 75 76 77 77 71 58 61 61 76 74 77 62 70 73 73 80 73 80 74 77 76 76 76
6 8 9 10 11 21 24 24 27 22 22 23 16 14 18 16 17 19 20 27 32 32 40 49 70 78 77 77 77 82 78 72 67 68 72 70 69 68 70 68 78 80 75 79 73 76 72 76 78
6 9 15 17 17 17 15 26 27 18 18 21 20 17 17 17 16 20 22 23 34 36 39 47 70 79 79 76 78 78 80 78 77 76 68 67 58 61 74 78 81 79 81 80 81 80 79 77 78
7 8 14 27 20 16 12 18 23 18 18 24 24 20 14 17 18 20 24 24 31 36 42 47 68 77 77 77 79 81 80 71 70 71 64 58 61 56 74 74 78 79 78 78 81 76 73 79 78
6 9 7 11 12 14 12 13 11 13 17 20 19 13 15 17 16 18 22 23 26 36 43 49 66 75 77 76 80 80 81 79 70 76 74 67 69 66 70 72 79 77 78 80 83 77 79 80 82
5 6 9 10 23 25 15 17 17 22 23 16 18 13 15 14 15 16 17 23 26 30 39 46 56 72 74 74 76 74 77 80 75 73 76 71 73 70 76 76 77 77 78 79 83 80 80 83 79
6 6 7 7 11 17 20 16 12 17 20 17 15 13 11 9 13 16 17 19 25 26 34 41 49 64 70 72 75 77 75 76 77 70 71 74 74 76 77 78 76 76 77 78 83 82 79 81 82
6 8 7 12 22 13 14 14 8 16 14 14 13 12 11 11 9 11 16 19 23 27 29 36 41 45 60 67 72 75 76 76 76 74 72 73 75 78 77 77 78 77 77 79 82 79 70 78 81

GFSSGP_sfc_rhum_033.txt.gz
RH
78 73 74 92 94 98 74 55 58 53 57 58 49 56 71 75 63 88 75 78 79 82 84 78 80 76 76 79 81 81 82 81 83 83 83 82 78 79 80 77 74 74 72 71 71 71 70 70 69
68 68 80 94 94 91 64 53 57 52 52 52 45 53 63 77 65 76 85 72 72 77 80 78 82 79 75 76 80 80 76 77 81 83 82 80 76 78 75 74 73 72 71 70 69 69 69 69 70
58 60 84 95 89 88 68 50 42 47 40 45 48 43 56 76 65 70 66 64 66 71 74 78 80 81 76 76 78 78 78 76 78 80 79 77 74 74 73 73 71 70 70 69 68 68 67 67 67
55 92 96 97 75 58 45 46 38 42 42 41 45 58 52 50 56 59 56 55 60 72 76 80 79 78 78 77 77 75 75 75 78 80 77 74 72 72 71 71 69 68 69 68 68 67 66 67 66
69 90 90 78 52 41 42 32 34 42 50 47 49 62 67 55 50 50 52 51 66 71 79 79 82 79 80 78 77 76 74 74 79 78 74 73 72 72 70 68 67 66 68 68 68 65 64 66 67
85 92 92 60 34 33 30 34 34 40 48 49 56 65 71 54 54 54 51 52 60 69 74 76 80 80 81 77 77 78 74 74 78 78 75 76 74 74 72 67 66 65 65 65 66 68 70 71 71
79 90 65 45 30 31 29 32 34 42 47 50 47 71 65 57 50 49 52 52 56 60 72 80 81 78 78 82 78 77 75 74 76 76 76 76 73 70 70 70 68 65 65 64 65 72 73 72 72
92 92 72 29 24 39 27 28 26 35 43 39 48 70 72 57 50 49 50 56 57 67 75 80 86 88 88 85 77 74 76 75 74 73 72 74 71 70 68 74 74 65 62 64 67 73 76 75 74
65 93 84 39 24 24 24 29 26 28 39 40 36 53 51 47 46 51 57 63 67 68 73 77 81 86 85 84 76 78 76 76 74 74 74 79 83 79 71 75 76 66 65 65 69 73 75 72 74
76 89 56 26 27 24 27 28 30 37 43 47 40 42 45 45 49 56 59 64 64 69 72 72 74 76 77 64 84 88 81 86 88 86 86 88 85 82 73 75 70 68 69 64 74 73 71 69 85
68 66 34 28 24 22 20 22 21 34 44 38 47 42 45 43 44 48 55 53 56 58 60 66 69 70 68 65 82 83 83 83 83 86 86 88 81 81 81 94 87 90 74 89 76 83 86 81 87
46 44 30 30 24 24 20 19 23 24 31 34 36 39 42 41 47 49 52 55 55 58 55 55 57 65 69 71 75 75 74 76 77 77 82 82 82 77 85 84 92 86 94 89 88 89 80 75 70
38 33 21 21 24 25 15 20 22 22 29 30 30 31 38 38 50 48 50 53 54 58 57 55 59 76 68 66 71 71 67 70 70 74 73 73 81 83 80 80 78 73 81 90 89 88 87 80 70
31 29 18 18 30 19 16 17 22 24 29 32 33 36 37 36 50 44 47 54 52 54 50 54 59 72 64 71 77 79 64 62 66 77 69 72 81 86 77 85 83 81 76 81 89 87 83 78 73
13 31 22 17 18 18 15 19 23 25 29 35 37 37 36 36 34 39 50 53 49 49 50 58 62 72 75 73 77 74 77 62 57 69 73 70 80 83 79 80 82 81 83 82 80 84 83 80 74
12 12 14 17 15 16 21 46 20 21 31 37 37 36 36 38 34 38 39 46 46 48 56 57 50 62 74 78 82 73 70 72 69 70 72 77 77 81 86 83 82 87 90 89 88 88 82 75 68
14 16 15 20 15 16 31 48 26 25 26 34 35 34 34 36 35 36 38 42 46 47 59 53 58 65 71 81 85 78 74 81 70 76 72 71 76 78 84 85 83 76 79 87 90 79 78 66 66
16 16 14 22 20 25 36 44 24 28 28 30 33 33 33 34 35 35 37 39 46 47 56 58 62 67 70 79 83 84 83 79 80 84 73 82 85 83 79 86 85 76 89 89 82 77 68 74 73
11 13 14 17 22 37 39 38 28 26 31 30 30 32 32 32 31 33 33 38 44 51 58 57 69 78 72 77 81 90 90 84 81 80 80 84 85 80 88 84 86 79 84 79 74 76 70 75 80
11 12 13 26 22 24 36 36 35 30 28 31 27 30 29 31 30 35 35 36 42 52 59 60 66 83 71 74 75 82 84 80 78 83 83 80 81 80 77 86 86 82 82 81 76 70 85 80 80
11 12 14 30 24 27 25 41 44 24 25 28 26 25 26 28 31 34 34 38 41 51 63 63 69 79 75 81 78 88 90 85 84 78 84 73 75 82 82 83 79 88 82 88 78 75 76 79 78
12 10 11 24 28 42 25 51 50 36 32 30 28 23 24 26 27 30 35 39 40 51 58 63 72 78 79 80 77 82 73 88 82 64 67 83 83 84 84 83 81 82 87 81 77 74 80 80 72
10 10 12 11 30 30 28 41 49 42 41 35 24 22 21 22 25 30 33 34 38 46 55 67 66 79 68 73 82 74 86 77 77 76 84 75 81 82 79 84 84 85 88 86 76 74 81 84 87
6 10 11 12 18 50 26 42 38 34 34 28 23 21 21 21 22 24 29 34 36 44 54 65 70 73 75 71 78 87 85 76 76 84 82 80 77 82 86 80 86 87 79 75 81 79 78 78 82
6 8 16 22 22 29 31 32 32 22 24 24 23 21 19 21 21 22 30 33 37 42 55 64 72 74 76 76 78 78 90 83 82 85 83 82 79 83 89 85 86 78 81 76 84 79 80 75 77
6 7 14 31 27 23 21 40 31 20 20 21 20 21 21 24 21 22 24 30 37 39 52 64 73 74 75 77 77 75 78 87 79 85 86 70 69 69 80 86 83 80 83 84 88 87 88 85 85
10 9 8 16 17 27 21 19 25 19 28 29 22 19 24 22 24 22 23 28 36 39 50 57 74 74 77 76 77 77 76 78 84 88 78 82 76 69 75 85 83 84 85 89 91 89 86 87 86
6 10 10 10 18 24 18 23 30 27 33 28 25 26 26 28 22 22 23 26 35 37 42 53 72 74 76 75 76 77 78 78 79 93 82 81 78 80 73 80 83 85 87 91 91 90 90 90 91
11 8 11 12 12 20 27 20 20 27 28 31 26 23 20 20 20 22 23 24 34 37 40 48 68 73 76 76 75 76 79 80 80 78 84 87 75 82 78 80 87 86 90 88 92 90 88 93 88
7 8 10 14 25 23 15 15 14 18 23 23 24 22 20 18 18 18 22 25 30 38 40 46 68 70 73 73 77 79 79 81 84 78 74 71 79 81 79 79 85 84 88 85 89 88 81 85 92

GFSSGP_sfc_rhum_036.txt.gz
RH
77 75 74 88 96 96 82 68 52 61 63 57 52 64 81 76 70 92 79 86 82 88 86 79 81 79 79 82 83 81 80 81 83 82 80 78 76 77 76 75 74 73 72 71 72 72 71 71 71
73 73 77 94 98 94 76 57 62 61 56 53 52 59 67 80 71 91 92 79 77 83 91 80 82 80 78 80 82 81 77 78 82 82 80 77 76 76 74 73 72 72 71 70 70 70 70 70 71
69 58 80 94 95 92 76 53 60 54 47 46 55 53 64 84 78 84 79 76 78 83 84 79 81 80 76 77 79 80 79 77 78 78 76 75 75 74 74 72 71 71 70 70 70 70 69 69 68
66 88 94 95 88 65 51 53 56 52 45 46 53 73 62 60 69 70 73 74 80 80 81 78 78 75 74 75 76 76 76 76 77 77 75 74 74 73 72 71 70 70 70 70 69 68 69 68 67
78 93 94 88 64 48 45 43 46 52 52 56 54 76 73 62 61 68 71 70 80 85 83 79 81 80 78 76 75 75 74 76 77 76 74 73 73 71 70 69 69 69 69 69 67 66 67 67 68
88 86 92 78 55 47 47 43 47 52 55 62 69 72 82 60 67 66 62 72 75 86 86 81 81 82 80 75 76 75 74 76 76 76 75 74 73 71 69 67 66 67 67 66 68 66 67 67 69
84 96 88 85 69 49 45 43 51 54 59 58 54 78 79 66 58 57 64 69 74 79 86 87 82 79 77 80 77 76 74 76 76 75 75 74 73 71 68 66 67 66 65 65 66 68 72 73 73
84 88 88 66 46 46 39 45 46 51 53 47 50 82 88 65 57 55 63 69 73 80 86 92 93 92 91 86 77 76 75 75 75 75 74 75 73 70 67 76 73 67 64 64 66 69 74 75 71
67 88 82 54 36 37 36 46 42 40 51 45 47 59 60 54 55 60 67 75 79 79 88 94 96 97 95 90 79 78 76 76 75 75 74 80 87 85 76 75 73 68 64 66 66 70 75 68 62
73 82 59 45 35 32 30 43 44 50 54 53 55 55 54 54 58 65 70 83 86 87 88 88 93 93 92 74 88 93 85 90 91 90 90 91 91 90 81 78 72 67 67 64 72 72 68 71 82
63 56 40 32 26 28 35 42 39 53 56 56 65 61 56 58 60 63 69 76 79 81 82 84 85 87 87 80 94 97 95 96 96 92 92 93 88 94 88 93 90 88 77 88 82 84 85 84 88
67 48 32 32 30 26 32 37 44 45 44 46 53 53 55 58 62 63 69 71 72 79 77 80 79 82 82 85 88 90 90 92 94 86 90 94 97 86 93 92 95 89 96 90 87 92 83 87 81
48 38 30 27 25 25 21 31 42 40 39 42 49 52 55 55 57 59 58 61 66 75 71 76 77 77 75 82 82 88 85 84 83 86 85 88 86 92 84 95 94 88 94 93 92 88 88 87 76
35 34 26 28 26 22 23 25 34 38 38 44 52 54 52 49 51 54 55 58 61 64 62 67 70 75 72 76 86 87 77 74 80 77 81 74 83 91 88 96 96 90 85 95 92 91 89 85 77
27 29 29 24 23 28 20 37 44 40 39 47 52 50 47 46 48 51 55 56 56 57 59 61 64 70 72 73 76 80 72 71 70 70 78 74 82 88 85 83 83 84 86 89 88 85 84 78 66
14 32 44 25 24 21 21 45 42 39 38 42 49 46 43 45 50 50 52 56 53 58 60 59 54 67 73 77 81 76 76 76 72 76 83 79 82 84 88 82 85 91 90 90 90 89 83 70 63
20 20 20 16 16 23 30 46 40 36 38 42 40 38 41 47 51 46 48 53 52 55 56 63 56 69 74 81 86 78 72 77 80 85 82 80 85 86 86 86 87 87 88 90 91 82 78 64 70
20 20 20 19 25 26 30 42 36 38 41 44 43 41 40 41 41 45 51 50 50 55 59 60 58 65 72 82 92 85 84 87 88 85 81 82 87 86 86 90 88 85 90 90 88 81 78 76 80
14 16 18 16 20 26 32 34 36 37 41 44 44 44 42 40 37 40 48 49 47 59 63 62 65 67 69 90 92 94 90 91 88 86 76 85 87 85 90 86 91 88 90 81 80 76 70 73 86
12 13 14 29 29 34 38 34 24 33 39 40 41 42 41 40 38 40 45 48 48 55 61 60 68 70 70 71 74 83 90 89 85 86 86 84 83 82 86 90 92 90 85 89 77 72 86 86 85
13 12 14 17 30 32 36 44 37 32 34 31 36 36 35 37 37 39 42 46 49 51 62 61 69 74 71 76 81 91 93 93 92 93 90 89 76 80 85 88 90 92 89 88 78 78 75 75 79
17 11 11 15 29 33 28 39 48 34 37 33 32 34 34 34 32 35 37 45 47 51 56 57 68 79 74 77 74 76 86 83 79 80 86 83 83 84 87 87 86 91 90 84 81 80 88 78 76
14 11 12 15 36 45 38 50 45 46 39 35 33 30 31 31 31 32 35 37 43 45 54 57 64 79 76 76 70 73 80 78 86 86 73 92 94 86 85 88 87 88 92 84 79 77 88 87 85
10 10 14 18 34 41 33 40 53 48 44 33 30 29 27 28 29 29 32 33 39 44 52 58 66 74 77 77 76 76 75 84 82 89 90 92 93 86 91 88 89 88 87 86 81 77 83 92 89
11 14 20 22 24 27 37 46 38 29 36 33 28 30 26 25 27 30 32 35 39 46 54 59 67 72 73 76 76 74 76 78 80 83 89 95 90 95 95 92 93 88 84 81 85 86 85 86 83
12 9 15 24 30 28 28 44 36 27 21 29 26 24 24 23 24 27 32 35 36 44 56 63 66 68 70 71 74 79 80 76 75 83 80 78 72 74 86 84 86 81 82 82 87 86 87 88 89
13 12 9 17 48 31 28 33 27 24 26 26 27 25 24 22 22 24 28 31 36 44 56 63 67 65 71 70 70 71 75 80 85 91 81 77 72 72 82 78 85 82 84 85 91 90 89 92 90
10 10 17 19 16 17 23 26 29 30 28 27 28 26 23 23 22 22 23 31 36 38 50 58 64 64 68 70 71 70 71 73 82 90 81 80 72 74 79 80 81 82 84 86 93 92 89 93 94
14 10 24 11 14 14 21 15 20 20 30 30 27 24 23 24 25 22 23 24 31 37 45 60 64 63 67 69 71 72 72 70 72 84 87 78 77 72 75 82 81 84 86 91 91 94 92 92 93
11 11 10 12 18 26 12 14 16 16 25 29 25 22 22 24 25 24 22 22 28 38 39 54 64 64 65 69 70 74 74 76 73 72 76 83 76 84 75 75 83 84 85 88 89 90 85 94 93

GFSSGP_sfc_rhum_042.txt.gz
RH
76 76 84 92 94 97 88 73 68 66 72 71 58 63 79 83 79 92 88 85 83 87 88 80 80 78 78 80 80 78 77 77 77 78 77 77 76 76 75 74 73 73 72 72 72 72 71 71 71
78 78 81 94 95 94 79 73 75 75 69 61 63 68 77 89 80 93 94 81 79 88 95 91 82 81 78 79 80 79 75 76 76 77 78 76 76 75 73 72 72 72 71 70 71 70 71 71 71
76 67 85 93 92 93 88 69 75 65 56 57 70 66 73 91 82 86 84 82 85 94 94 91 81 82 76 77 78 78 78 76 78 78 76 76 74 73 72 72 72 72 72 71 70 69 69 69 71
82 92 94 88 83 72 72 67 63 64 58 62 67 85 76 69 79 83 79 82 89 93 90 81 78 76 75 76 77 77 76 76 75 76 76 74 73 72 72 72 72 71 74 71 70 70 70 69 68
76 88 90 86 77 67 62 59 58 64 64 66 66 88 91 80 78 77 83 82 92 95 92 82 80 78 76 76 77 76 76 76 76 75 75 74 72 71 70 70 70 71 71 69 68 68 69 69 69
81 89 84 84 73 62 58 58 59 64 70 70 75 84 94 82 80 82 79 86 86 90 91 84 78 78 76 75 75 75 76 76 76 74 74 74 72 70 69 68 69 70 68 68 68 67 68 68 69
81 84 77 76 72 67 59 55 66 68 68 69 65 91 93 86 80 78 83 86 86 88 91 90 83 77 74 75 75 75 75 76 76 75 74 74 72 69 69 68 68 67 66 66 67 68 67 68 69
83 85 86 80 71 69 53 53 58 57 64 55 63 93 95 87 78 80 85 90 96 96 94 96 92 88 88 84 74 73 75 75 76 75 76 73 71 69 68 75 74 70 66 64 66 66 67 70 70
71 84 83 68 69 57 50 58 52 53 60 56 59 69 70 78 76 86 92 95 99 94 98 97 97 95 94 91 81 77 74 75 75 74 73 76 85 83 78 77 74 70 66 70 69 67 69 66 72
82 84 64 50 48 62 52 55 58 62 60 68 69 71 74 76 83 90 88 88 94 96 98 98 98 97 96 83 92 91 86 87 91 89 89 90 91 90 81 79 76 74 70 71 68 68 70 72 80
75 69 49 41 40 49 52 54 53 61 68 70 82 80 77 79 84 88 89 89 91 92 89 96 98 98 97 93 96 96 95 95 95 92 92 93 90 94 87 92 89 88 79 84 81 82 86 83 85
77 64 52 44 36 48 53 51 55 53 51 56 66 71 76 82 84 85 86 86 86 91 93 94 97 98 98 96 97 97 97 96 96 94 92 94 96 92 92 89 91 88 93 90 87 89 87 85 85
69 60 47 40 34 45 47 49 52 50 53 53 62 70 76 78 78 77 78 80 81 91 89 93 95 98 97 96 98 97 98 96 94 93 91 90 93 96 89 94 92 93 91 93 91 88 88 85 82
48 52 45 37 35 39 49 50 51 53 53 59 67 73 73 74 75 77 78 83 84 85 86 87 93 95 96 96 97 97 97 95 93 91 89 88 95 95 89 94 94 96 90 93 91 92 91 85 79
36 41 36 42 41 37 44 59 57 52 55 62 66 70 71 70 69 75 75 80 81 82 82 87 90 91 96 95 95 95 94 87 89 88 87 86 90 92 91 91 90 88 93 89 90 88 88 71 63
39 46 54 32 31 34 45 62 50 53 58 64 64 68 69 70 69 68 70 73 75 78 85 85 76 86 93 94 92 90 89 88 87 80 84 87 87 91 92 90 89 90 91 91 91 88 82 70 66
26 31 30 22 22 28 41 51 40 54 58 64 62 66 67 70 68 67 64 69 71 76 81 84 82 84 88 91 91 89 88 89 84 86 84 89 87 88 91 88 87 90 90 90 90 85 77 71 72
34 26 24 20 23 34 38 42 48 55 58 61 62 63 66 68 68 64 64 64 67 72 78 80 81 85 88 86 90 92 91 89 86 87 87 90 89 88 89 90 89 90 91 89 89 84 79 75 78
24 21 21 19 18 36 36 47 61 56 58 61 61 61 62 63 59 59 60 62 64 69 76 78 82 84 85 88 91 93 87 90 90 90 86 89 90 89 92 94 91 90 90 88 86 80 75 73 81
18 22 19 17 16 30 36 39 61 57 58 60 61 60 59 59 59 58 60 61 63 68 73 77 78 81 82 80 80 84 84 89 85 89 87 88 89 90 86 89 91 92 89 89 87 80 78 80 81
22 20 21 20 24 44 43 51 68 58 56 54 56 55 56 57 57 56 58 60 62 67 71 75 76 77 80 80 82 94 94 95 93 91 91 87 88 86 88 90 90 92 92 88 87 81 78 79 80
28 18 16 16 21 25 43 63 64 61 60 53 51 55 55 54 51 50 54 57 59 64 65 70 74 77 78 81 81 84 79 85 84 88 88 88 88 87 87 90 90 92 90 92 86 78 79 80 79
22 16 16 17 26 32 33 56 49 59 65 57 51 48 46 46 46 46 50 53 53 56 61 66 72 77 78 80 77 79 80 79 86 92 89 92 93 90 86 89 91 91 90 91 88 86 86 78 79
17 18 20 29 30 35 23 36 41 62 57 53 48 46 45 43 42 41 44 48 50 53 58 64 74 78 79 80 79 82 81 86 86 93 90 91 91 90 91 88 90 91 91 90 86 87 87 85 84
18 25 34 32 35 28 22 43 20 40 37 41 44 42 42 42 42 42 43 45 52 58 60 64 76 80 79 80 80 79 80 84 84 86 85 93 93 95 91 92 92 91 91 90 89 88 87 88 85
20 23 37 37 37 23 34 32 26 22 33 31 32 33 33 36 40 41 42 42 46 55 61 66 75 78 78 81 82 81 81 78 76 81 81 82 84 85 90 90 89 90 89 90 89 82 81 87 86
24 23 19 25 52 30 30 30 23 28 24 35 31 29 28 30 34 38 38 39 41 50 58 63 71 75 77 79 81 82 81 81 79 82 84 83 86 83 89 90 90 90 88 89 90 83 84 86 88
17 16 23 28 35 35 27 33 28 34 29 28 34 35 32 30 29 33 35 37 39 42 51 58 64 72 71 76 78 77 79 80 79 80 85 83 85 86 89 90 90 91 89 88 90 87 87 88 85
21 19 23 21 27 26 30 25 27 29 25 17 17 26 31 32 31 30 33 34 37 38 45 53 60 66 69 76 78 79 79 79 79 78 82 82 85 86 87 90 90 90 90 88 88 88 87 88 89
14 17 20 23 27 26 26 21 18 17 20 29 28 26 35 36 32 30 30 32 35 39 41 49 54 59 64 68 76 78 79 80 78 79 80 84 85 86 85 88 88 88 88 89 87 84 81 85 89

GFSSGP_sfc_rhum_045.txt.gz
RH
74 68 72 83 94 87 68 59 52 54 57 55 48 52 58 78 72 92 80 75 83 75 75 74 81 79 79 82 82 80 78 77 79 78 77 77 76 75 74 74 73 73 72 71 71 70 70 71 70
66 78 80 82 82 86 67 57 63 57 59 50 51 56 61 80 74 91 83 64 63 59 63 64 83 80 78 80 81 80 75 76 77 77 76 75 75 73 73 72 72 71 70 70 70 71 71 69 70
68 65 82 86 72 73 62 56 57 56 49 50 60 54 63 80 74 76 63 61 58 60 60 71 82 81 77 77 78 78 75 76 77 76 75 74 73 72 72 72 72 72 72 71 70 69 69 69 69
69 77 79 69 57 55 53 53 50 52 50 53 54 70 67 59 66 63 64 59 57 56 58 73 79 76 76 77 77 76 76 77 76 75 75 74 72 72 72 72 73 71 71 71 70 69 68 68 68
61 68 67 61 53 52 46 47 47 52 57 56 56 76 88 76 62 62 63 56 54 52 60 62 80 78 77 76 77 75 74 74 76 76 74 73 72 71 71 71 74 72 70 68 68 68 68 69 66
62 69 66 51 52 48 46 45 46 52 58 60 62 66 82 69 65 63 57 55 51 54 56 58 76 78 77 75 75 74 74 75 74 74 74 72 72 71 70 69 70 70 68 66 66 66 67 67 68
65 65 63 56 55 51 49 43 49 51 55 59 53 71 91 73 59 59 57 56 54 54 61 61 58 67 74 74 74 74 74 75 75 74 74 73 71 69 68 68 69 66 65 65 66 67 66 66 68
58 61 53 51 49 50 44 45 46 45 54 47 49 74 88 73 59 57 57 57 56 58 63 67 65 61 64 62 74 74 74 75 75 74 72 72 70 68 68 73 72 68 65 64 64 65 65 67 69
55 62 51 48 50 43 42 49 44 43 50 48 50 55 52 62 58 60 63 63 64 62 60 57 60 64 66 64 62 72 74 74 73 70 72 69 56 60 60 71 72 67 64 66 65 65 67 66 70
64 62 43 38 38 41 43 42 46 49 47 54 61 53 59 62 66 66 71 69 63 65 62 58 56 59 65 57 67 66 61 56 61 63 68 60 64 64 62 68 77 75 73 71 69 69 70 63 47
59 49 38 32 31 34 40 42 40 47 49 49 64 67 64 64 65 65 63 61 62 61 58 57 64 65 64 64 63 63 59 59 61 74 70 66 64 64 56 59 55 56 64 50 54 54 50 57 50
55 49 39 34 30 34 42 38 43 42 36 35 51 58 62 63 60 59 59 60 62 64 62 61 67 74 71 63 63 62 59 60 58 59 72 68 60 65 67 57 61 64 59 66 61 53 63 59 58
53 45 41 36 32 29 36 46 41 43 43 42 52 59 61 59 57 55 53 55 60 64 61 64 69 76 75 79 66 66 65 58 56 61 62 58 60 70 64 68 60 64 59 59 67 61 60 64 56
40 44 37 30 27 32 39 40 41 41 48 53 57 58 57 56 55 57 57 58 60 60 59 61 68 74 76 76 80 72 67 62 63 57 57 67 61 70 62 64 59 61 61 60 62 80 64 59 56
25 30 25 26 27 29 35 47 46 42 49 56 55 56 56 56 54 58 56 58 58 56 57 62 67 68 79 78 75 71 63 57 57 55 65 64 67 69 78 63 60 56 66 73 67 71 72 47 46
23 26 26 24 28 28 32 34 38 43 47 52 54 55 57 56 54 55 54 55 56 55 62 63 56 64 73 76 74 67 60 57 56 54 55 68 67 73 73 63 60 61 66 79 82 62 57 58 57
20 20 24 22 24 26 33 29 29 41 43 51 54 53 54 56 55 54 52 55 55 60 64 65 64 63 71 76 72 69 68 62 55 55 60 70 69 70 70 61 60 71 62 67 75 61 59 53 56
24 22 19 21 16 21 32 29 30 42 42 47 51 51 52 52 52 52 52 52 54 58 65 69 66 71 76 70 75 65 60 58 58 59 59 73 69 71 72 80 75 67 63 77 76 70 58 51 50
17 19 21 17 14 20 21 21 25 40 42 45 46 50 48 47 46 48 51 51 53 58 66 71 75 79 73 69 66 63 59 60 62 62 69 70 71 73 77 84 68 72 82 69 76 66 66 53 57
17 17 20 16 12 15 15 20 25 38 43 44 45 49 47 43 46 52 53 53 55 60 66 72 76 79 77 66 68 59 61 56 58 60 67 68 68 72 70 80 72 72 62 76 75 73 58 51 56
17 16 17 17 13 20 22 21 36 39 42 42 42 42 45 44 45 47 52 53 53 60 67 72 79 79 78 75 68 69 65 67 64 63 63 63 68 68 74 82 74 73 71 62 73 71 68 49 58
17 13 13 17 19 21 25 24 38 36 47 47 44 43 40 41 43 40 45 49 51 56 60 68 74 79 76 80 73 80 63 62 58 60 58 60 67 67 68 72 74 77 64 71 69 66 62 62 53
15 12 14 14 18 18 18 22 19 38 44 44 42 42 40 36 38 40 41 44 47 50 53 60 72 78 76 79 77 71 72 59 55 59 72 77 72 72 65 72 74 75 66 72 75 75 72 56 50
14 15 15 17 15 23 19 19 19 30 40 37 37 37 40 36 36 38 39 41 45 45 50 54 72 80 78 79 79 81 78 72 62 68 63 61 58 59 72 70 75 75 72 74 72 75 74 68 59
14 15 20 22 22 22 15 18 20 16 23 25 32 36 35 37 36 38 40 41 47 49 53 56 72 80 79 78 77 77 79 78 78 74 63 64 57 56 68 76 77 70 78 74 74 79 73 71 60
17 12 13 24 17 14 18 21 18 13 12 22 20 24 29 34 36 38 40 41 45 49 55 60 70 77 75 76 79 80 79 65 65 69 57 55 54 55 66 71 71 74 74 74 77 68 65 69 64
17 18 9 12 18 16 13 16 14 16 14 14 23 24 27 30 33 35 35 36 40 47 54 60 68 76 75 72 78 79 78 77 68 74 74 58 67 55 64 68 72 73 74 76 79 65 74 69 70
13 12 17 15 23 20 14 19 14 21 17 17 19 24 24 25 28 30 33 36 38 39 48 56 64 73 72 71 71 70 74 75 73 73 76 72 69 70 64 70 72 75 76 77 81 71 74 75 63
14 15 13 12 13 14 13 10 15 19 19 17 16 20 20 21 22 24 30 34 37 38 41 50 57 65 68 69 71 73 71 71 73 70 72 74 74 75 73 72 73 74 76 77 80 76 71 76 74
11 14 14 17 28 16 12 11 12 14 15 16 16 16 17 19 20 22 22 28 33 39 38 44 49 54 59 64 70 72 72 72 70 72 70 72 75 76 75 74 73 73 73 76 79 76 68 74 74